Location: Bord�res
(43.2000°N, 0.2167°W)
Time: 15:02:00
(UTC+00:00)

Ariane Rocket - Pass Details

Date: 03 March 2021
Orbit: 759 x 771 km, 98.7° (Epoch: 20 April)

Event Time Altitude Azimuth Distance (km) Brightness Sun altitude
Exits shadow 18:42:03 12° 95° (E) 2,146 4.6 -9.8°
Maximum altitude 18:44:39 18° 61° (ENE) 1,841 4.5 -10.3°
Drops below altitude 10° 18:47:57 10° 20° (NNE) 2,322 5.3 -10.9°
Sets 18:50:57 0° 2° (N) 3,252 6.3 -11.4°
